[[{"header":{"parameterUnit":"m.s-1","parameterCategory":1,"la1":30.2991,"la2":30.254,"lo1":-89.0895,"lo2":-89.0444,"dy":0.0017,"dx":0.0017,"nx":28,"ny":28,"refTime":"2023-11-21T09:00:00:Z","depth":0,"parameterNumber":2,"parameterNumberName":"U-component_of_WINDS"},"data":[0,0,0,0,0,0,0,0,0,0,0,0,0,0,0,0,0,0,0,0,0,0,0,0,0,0,0,0,0,0,0,0,0,0,0,0,0,0,0,0,0,0,0,0,0,0,0,0,0,0,0,0,0,0,0,0,0,0,3.9147,3.9147,0,3.9169,3.9169,3.9169,3.9106,3.9104,3.9102,3.91,3.9121,3.9123,3.9125,0,0,0,0,0,0,0,0,0,0,0,0,0,3.905,3.9052,3.9147,3.9147,3.9148,3.9169,3.9169,3.9169,3.9106,3.9104,3.9102,3.9099,3.912,3.9123,3.9126,0,0,0,0,0,0,0,0,0,0,0,0,0,3.9084,3.9053,3.9147,3.9119,3.9116,3.9169,3.9169,3.917,3.9107,3.9104,3.9101,3.9098,3.9119,3.9122,3.9126,3.9206,0,0,3.9137,3.9138,0,0,0,0,0,0,0,0,3.9082,3.9088,3.9123,3.9121,3.9118,3.9132,3.9142,3.9182,3.9108,3.911,3.91,3.9097,3.9127,3.9129,3.914,3.9207,3.9208,3.9137,3.9139,3.9141,3.9142,0,0,0,0,0,0,0,3.908,3.9086,3.9156,3.9123,3.9121,3.9105,3.9106,3.915,3.9135,3.911,3.9105,3.9109,3.9125,3.9137,3.914,3.9208,3.9137,3.914,3.9142,3.9144,3.9344,3.9347,0,0,0,0,0,0,3.9082,3.9085,3.9155,3.9156,3.9093,3.9109,3.9111,3.913,3.9134,3.9132,3.9111,3.9106,3.9132,3.9136,3.914,3.9235,3.9141,3.9144,3.9146,3.9341,3.9345,3.9349,0,0,0,0,0,0,3.908,3.9088,3.9154,3.9119,3.9127,3.9114,3.9136,3.9132,3.9144,3.9135,3.9132,3.9126,3.913,3.9135,3.9191,3.9235,3.9146,3.9149,3.9337,3.9342,3.9347,3.9426,0,0,0,0,0,0,3.9077,3.9088,3.9118,3.9121,3.9129,3.9204,3.9139,3.9135,3.915,3.9143,3.9148,3.9146,3.9128,3.9186,3.9194,3.9238,3.9151,3.9333,3.934,3.9345,3.9419,3.9433,3.9444,0,0,0,0,0,3.9074,3.9139,3.912,3.9129,3.9166,3.9207,3.9212,3.919,3.9154,3.9185,3.9179,3.9146,3.9229,3.9192,3.9201,3.9247,3.933,3.9338,3.9345,3.9414,3.943,3.9444,0,0,0,0,0,0,3.914,3.9138,3.9118,3.9185,3.9197,3.9196,3.9234,3.9208,3.9229,3.9222,3.9194,3.9195,3.9256,3.9257,3.9216,3.9326,3.9274,3.9283,3.9323,3.9339,3.9351,3.9349,3.9154,0,0,0,0,0,3.9163,3.9197,3.9193,3.9253,3.926,3.9247,3.9263,3.9246,3.9257,3.9261,3.926,3.9271,3.93,3.9319,3.9345,3.9419,3.942,3.9456,3.9468,3.9479,3.9487,3.9528,3.9544,3.9372,3.9372,3.9372,0,0,3.921,3.9213,3.9236,3.9267,3.9274,3.9309,3.9251,3.929,3.9317,3.9267,3.9319,3.9319,3.933,3.9396,3.9425,3.9398,3.9535,3.9488,3.9496,3.9499,3.9537,3.9553,3.9568,3.9377,3.9376,3.9376,0,0,3.9314,3.9319,3.9371,3.938,3.9392,3.9383,3.9395,3.9399,3.9397,3.945,3.9414,3.9445,3.9495,3.9505,3.9516,3.9627,3.9597,3.9636,3.9702,3.9742,3.9756,3.9767,3.9808,3.9822,3.9645,3.9645,3.9645,0,3.937,3.9423,3.94,3.9443,3.9458,3.9417,3.9469,3.9478,3.9498,3.9509,3.948,3.9544,3.9548,3.9616,3.9643,3.9654,3.9668,3.9635,3.9756,3.9767,3.9778,3.9816,3.9831,3.965,3.9649,3.9649,3.9648,0,3.9492,3.9529,3.9569,3.9591,3.9611,3.9658,3.9643,3.9666,3.9648,3.9642,3.9697,3.9701,3.9728,3.9743,3.9725,3.981,3.9793,3.976,3.9707,3.9799,3.9835,3.9849,3.9656,3.9655,3.9653,3.9652,0,0,3.9636,3.9647,3.9662,3.9672,3.9684,3.9712,3.9759,3.9786,3.9807,3.9822,3.9861,3.9905,3.9876,3.9889,3.9872,3.9907,3.9996,3.987,3.987,3.9894,4.0091,4.0116,4.0133,3.9977,3.998,3.9982,4.009,0,3.9738,3.9818,3.9801,3.9879,3.9914,3.9877,3.9917,3.9929,3.9925,3.9954,3.995,3.9983,3.994,3.9949,3.9982,3.9978,4.0035,3.997,4.0013,4.0014,4.0011,4.0151,4.0177,4.0279,4.0104,4.0106,4.0108,0,3.9868,3.9891,3.9974,3.9982,3.9996,4.0033,4.0058,4.0086,4.0099,4.0094,4.0111,4.0087,4.0134,4.0081,4.0145,4.0101,4.0118,4.0119,4.0122,4.0125,4.0066,4.0158,4.031,4.0326,4.0129,4.0127,4.0126,0,3.9966,4.0017,4.0074,4.0084,4.0094,4.0121,4.0127,4.0137,4.0156,4.0178,4.019,4.0216,4.0231,4.0252,4.0237,4.02,4.0304,4.025,4.0301,4.0302,4.0324,4.0323,4.0482,4.0335,4.0335,4.0335,4.0334,0,4.0082,4.0135,4.0118,4.0153,4.0211,4.019,4.0248,4.0249,4.0259,4.0294,4.0263,4.0296,4.0274,4.0305,4.0294,4.0349,4.0356,4.0353,4.0349,4.0356,4.0356,4.0366,4.0358,4.0339,4.0338,4.0337,4.0336,0,4.0201,4.0192,4.0251,4.0257,4.026,4.0303,4.0308,4.0341,4.0336,4.038,4.0389,4.0382,4.0417,4.0405,4.0442,4.0435,4.0505,4.0492,4.0501,4.0498,4.055,4.0546,4.072,4.0743,4.0582,4.0584,4.0585,0,4.0275,4.0315,4.0327,4.0348,4.0357,4.0391,4.0411,4.0393,4.0414,4.0434,4.0465,4.0498,4.0523,4.0582,4.058,4.0609,4.0596,4.0656,4.06,4.0606,4.0598,4.0596,4.06,4.0666,4.0668,4.067,4.0671,0,4.0409,4.0404,4.0433,4.0462,4.0487,4.0508,4.0527,4.0546,4.053,4.0556,4.0592,4.0613,4.0652,4.0686,4.0713,4.0718,4.0693,4.0689,4.0702,4.0709,4.0713,4.0712,4.0531,4.0685,4.0683,4.0682,4.0682,4.0681,4.0508,4.0543,4.0557,4.0591,4.0604,4.0623,4.0655,4.0655,4.0685,4.0717,4.0705,4.0748,4.0761,4.0795,4.0805,4.0838,4.0815,4.0834,4.0839,4.0844,4.0851,4.0708,4.0842,4.0842,4.0842,4.0841,4.0841,0,4.0641,4.0649,4.0681,4.071,4.0737,4.0712,4.0732,4.0757,4.0795,4.0811,4.0837,4.0881,4.0914,4.0915,4.0946,4.0973,4.0962,4.0981,4.0979,4.0981,4.087,4.0855,4.099,4.099,4.099,4.099,4.099,4.099,4.0713,4.0771,4.0767,4.0831,4.0838,4.0881,4.0895,4.0912,4.0925,4.0975,4.1003,4.1004,4.1014,4.1046,4.1076,4.1075,4.1088,4.1112,4.1108,4.1003,4.0989,4.0974,4.0961,4.1115,4.1116,4.1216,4.1217,4.1218]},{"header":{"parameterUnit":"m.s-1","parameterCategory":1,"la1":30.2991,"la2":30.254,"lo1":-89.0895,"lo2":-89.0444,"dy":0.0017,"dx":0.0017,"nx":28,"ny":28,"refTime":"2023-11-21T09:00:00:Z","depth":0,"parameterNumber":3,"parameterNumberName":"V-component_of_WINDS"},"data":[0,0,0,0,0,0,0,0,0,0,0,0,0,0,0,0,0,0,0,0,0,0,0,0,0,0,0,0,0,0,0,0,0,0,0,0,0,0,0,0,0,0,0,0,0,0,0,0,0,0,0,0,0,0,0,0,0,0,-6.5829,-6.583,0,-6.5979,-6.5981,-6.5983,-6.5948,-6.5945,-6.5942,-6.594,-6.6091,-6.6098,-6.6104,0,0,0,0,0,0,0,0,0,0,0,0,0,-6.5509,-6.5515,-6.5828,-6.583,-6.5832,-6.5979,-6.5981,-6.5983,-6.5949,-6.5945,-6.5942,-6.5938,-6.6089,-6.6097,-6.6105,0,0,0,0,0,0,0,0,0,0,0,0,0,-6.5652,-6.5517,-6.5828,-6.5833,-6.5835,-6.5979,-6.5981,-6.5984,-6.5949,-6.5945,-6.5941,-6.5937,-6.6086,-6.6096,-6.6106,-6.6254,0,0,-6.6137,-6.6141,0,0,0,0,0,0,0,0,-6.5644,-6.5664,-6.583,-6.5833,-6.5835,-6.5941,-6.5924,-6.6074,-6.595,-6.5906,-6.594,-6.5935,-6.6044,-6.6058,-6.6095,-6.6261,-6.6268,-6.6138,-6.6144,-6.6148,-6.6151,0,0,0,0,0,0,0,-6.5634,-6.5657,-6.5888,-6.5833,-6.5836,-6.5827,-6.5842,-6.5952,-6.5997,-6.5909,-6.5907,-6.5926,-6.6045,-6.6086,-6.6099,-6.627,-6.6137,-6.6146,-6.6153,-6.6157,-6.6566,-6.6571,0,0,0,0,0,0,-6.5623,-6.5649,-6.5883,-6.5893,-6.5727,-6.5836,-6.5854,-6.5911,-6.5996,-6.6005,-6.5929,-6.5923,-6.6071,-6.6087,-6.6104,-6.6284,-6.6148,-6.6158,-6.6163,-6.6562,-6.6567,-6.6573,0,0,0,0,0,0,-6.5616,-6.5644,-6.5877,-6.5771,-6.58,-6.5846,-6.5911,-6.5916,-6.5957,-6.6011,-6.6019,-6.5963,-6.6068,-6.609,-6.6218,-6.6288,-6.6162,-6.6171,-6.6556,-6.6563,-6.657,-6.6644,0,0,0,0,0,0,-6.5607,-6.5642,-6.5699,-6.5772,-6.5805,-6.5989,-6.5915,-6.5922,-6.5975,-6.5969,-6.6044,-6.6053,-6.6066,-6.6203,-6.6228,-6.63,-6.6179,-6.655,-6.6559,-6.6568,-6.6635,-6.6653,-6.6668,0,0,0,0,0,-6.5596,-6.5712,-6.5702,-6.573,-6.5878,-6.5993,-6.6012,-6.6026,-6.5981,-6.6038,-6.6073,-6.605,-6.6277,-6.6216,-6.6244,-6.632,-6.6545,-6.6556,-6.6567,-6.6628,-6.6649,-6.6667,0,0,0,0,0,0,-6.5644,-6.5722,-6.5711,-6.5855,-6.5918,-6.5987,-6.606,-6.6048,-6.6124,-6.6115,-6.6128,-6.6146,-6.6277,-6.6311,-6.6242,-6.6469,-6.6404,-6.6421,-6.6441,-6.6462,-6.6478,-6.6467,-6.6187,0,0,0,0,0,-6.5672,-6.576,-6.5823,-6.5944,-6.5976,-6.6013,-6.6064,-6.6069,-6.6135,-6.6161,-6.6205,-6.6268,-6.6354,-6.641,-6.6491,-6.664,-6.6657,-6.6707,-6.6723,-6.6736,-6.675,-6.6833,-6.6856,-6.6609,-6.6608,-6.6608,0,0,-6.573,-6.5783,-6.5838,-6.5955,-6.6005,-6.6095,-6.6036,-6.6133,-6.6201,-6.6175,-6.6299,-6.6334,-6.6406,-6.6546,-6.6609,-6.6578,-6.6823,-6.675,-6.676,-6.6767,-6.6847,-6.687,-6.6891,-6.6616,-6.6615,-6.6613,0,0,-6.5882,-6.5931,-6.6038,-6.6089,-6.6165,-6.6189,-6.6215,-6.6287,-6.631,-6.6435,-6.6418,-6.6498,-6.6644,-6.6697,-6.6743,-6.6917,-6.6899,-6.6943,-6.7027,-6.7108,-6.7127,-6.7145,-6.7207,-6.723,-6.6957,-6.6957,-6.6957,0,-6.5944,-6.608,-6.6094,-6.6195,-6.6247,-6.623,-6.6338,-6.6387,-6.6486,-6.6522,-6.6487,-6.6672,-6.6719,-6.6871,-6.6914,-6.6951,-6.6981,-6.6934,-6.7123,-6.7141,-6.7157,-6.7217,-6.7241,-6.6962,-6.6962,-6.6961,-6.6961,0,-6.6153,-6.6248,-6.6325,-6.6423,-6.6484,-6.6588,-6.6617,-6.6678,-6.6678,-6.6706,-6.6834,-6.689,-6.6984,-6.702,-6.7021,-6.7173,-6.7152,-6.712,-6.7056,-6.7186,-6.7242,-6.7265,-6.6969,-6.6967,-6.6966,-6.6965,0,0,-6.6338,-6.6444,-6.6472,-6.6517,-6.66,-6.6674,-6.6777,-6.687,-6.6922,-6.6991,-6.7078,-6.7204,-6.7176,-6.7228,-6.7234,-6.7305,-6.7441,-6.7264,-6.7266,-6.7296,-6.7613,-6.7637,-6.7663,-6.7429,-6.7434,-6.7437,-6.7607,0,-6.6498,-6.6682,-6.6698,-6.6863,-6.6951,-6.6937,-6.7027,-6.7088,-6.7117,-6.7196,-6.7228,-6.7317,-6.7273,-6.7304,-6.7373,-6.7409,-6.7504,-6.7397,-6.7511,-6.7515,-6.7493,-6.7692,-6.7718,-6.7875,-6.7629,-6.7633,-6.7636,0,-6.6709,-6.6786,-6.696,-6.7033,-6.707,-6.7151,-6.7239,-6.7314,-6.7384,-6.74,-6.7459,-6.7457,-6.7564,-6.7496,-6.7643,-6.757,-6.7617,-6.7642,-6.7649,-6.766,-6.7583,-6.7709,-6.7925,-6.7949,-6.767,-6.7668,-6.7665,0,-6.6828,-6.6975,-6.7098,-6.7137,-6.7225,-6.7282,-6.7321,-6.7386,-6.7442,-6.7518,-6.7554,-6.7641,-6.7688,-6.7756,-6.7777,-6.7725,-6.7924,-6.7857,-6.794,-6.794,-6.7982,-6.798,-6.8209,-6.8013,-6.8013,-6.8012,-6.8012,0,-6.7004,-6.7111,-6.7153,-6.7229,-6.7349,-6.7367,-6.7485,-6.7521,-6.7579,-6.7662,-6.7654,-6.7732,-6.7755,-6.7837,-6.7854,-6.7974,-6.7995,-6.8012,-6.8015,-6.8013,-6.8011,-6.8044,-6.8033,-6.8018,-6.8017,-6.8016,-6.8015,0,-6.7157,-6.7189,-6.7323,-6.7396,-6.7417,-6.7502,-6.7565,-6.7638,-6.7666,-6.7771,-6.7797,-6.7841,-6.7937,-6.7965,-6.808,-6.8092,-6.8233,-6.8226,-6.821,-6.821,-6.8292,-6.8284,-6.8551,-6.8587,-6.8367,-6.8369,-6.837,0,-6.7268,-6.735,-6.7433,-6.7488,-6.753,-6.7619,-6.7676,-6.7697,-6.7757,-6.7843,-6.7906,-6.8002,-6.8079,-6.8233,-6.8275,-6.8364,-6.8359,-6.8447,-6.8372,-6.8368,-6.8361,-6.8356,-6.8365,-6.8461,-6.8463,-6.8465,-6.8466,0,-6.7461,-6.7474,-6.7556,-6.7646,-6.7714,-6.7785,-6.7853,-6.7899,-6.793,-6.7997,-6.8096,-6.8157,-6.8275,-6.837,-6.846,-6.85,-6.8489,-6.849,-6.8514,-6.8512,-6.85,-6.8508,-6.8249,-6.8483,-6.8482,-6.848,-6.8479,-6.8479,-6.7597,-6.767,-6.774,-6.7833,-6.7887,-6.7951,-6.8024,-6.8063,-6.8146,-6.8245,-6.8252,-6.836,-6.8428,-6.8548,-6.8593,-6.8677,-6.8651,-6.8686,-6.8695,-6.8703,-6.871,-6.8487,-6.8693,-6.8693,-6.8692,-6.8692,-6.8692,0,-6.779,-6.7835,-6.7921,-6.8017,-6.8091,-6.8075,-6.8151,-6.8213,-6.8308,-6.8373,-6.845,-6.8564,-6.8657,-6.8707,-6.8799,-6.8857,-6.8855,-6.8881,-6.8877,-6.8886,-6.8727,-6.8698,-6.8882,-6.8881,-6.8881,-6.8881,-6.8881,-6.8881,-6.79,-6.8023,-6.8044,-6.8195,-6.8238,-6.8345,-6.8389,-6.8449,-6.8501,-6.863,-6.8707,-6.874,-6.8799,-6.8896,-6.898,-6.8993,-6.9027,-6.9057,-6.9066,-6.8917,-6.8897,-6.8879,-6.8851,-6.9064,-6.9064,-6.9218,-6.9219,-6.9221]}]]